CW4477 Weather Reports


Display with metric or nautical units.
time (UTC)temp
F
wind
direction
speed
MPH
gust
MPH
rain 1hr
in
rain 24hr
in
rain mn
in
humidity
%
barometer
mb
20260906111053 72 140 1.0 3.0 0.00 0.00 0.00 78 1017.7
20260906110551 72 2 0.0 3.0 0.00 0.00 0.00 78 1017.6
20260906110307 72 2 2.0 3.0 0.00 0.00 0.00 78 1017.6
20260906105544 72 329 0.0 3.0 0.00 0.00 0.00 77 1017.6
20260906105307 72 160 0.0 3.0 0.00 0.00 0.00 78 1017.5
20260906104523 72 160 0.0 4.0 0.00 0.00 0.00 78 1017.6
20260906104022 72 205 0.0 4.0 0.00 0.00 0.00 77 1017.4
20260906103521 73 90 0.0 5.0 0.00 0.00 0.00 77 1017.2
20260906103022 73 75 0.0 6.0 0.00 0.00 0.00 77 1017.2
20260906102508 73 50 2.0 6.0 0.00 0.00 0.00 77 1017.2
20260906102225 73 50 0.0 5.0 0.00 0.00 0.00 76 1017.1
20260906101507 73 87 1.0 5.0 0.00 0.00 0.00 76 1017.1
20260906101005 73 22 0.0 0.0 0.00 0.00 0.00 76 1017.1
20260906100701 73 22 0.0 5.0 0.00 0.00 0.00 75 1017.1
20260906095913 73 22 0.0 5.0 0.00 0.00 0.00 75 1017.0
20260906095414 74 33 0.0 3.0 0.00 0.00 0.00 75 1017.0
20260906094911 74 14 1.0 6.0 0.00 0.00 0.00 75 1017.1
20260906094411 74 281 0.0 6.0 0.00 0.00 0.00 74 1017.0
20260906094343 74 115 0.0 2.0 0.00 0.00 0.00 74 1017.0
20260906093348 74 67 0.0 3.0 0.00 0.00 0.00 74 1016.9
20260906092846 74 39 2.0 4.0 0.00 0.00 0.00 74 1016.9
20260906092558 74 165 1.0 6.0 0.00 0.00 0.00 73 1017.0
20260906092444 74 28 1.0 6.0 0.00 0.00 0.00 74 1017.0
20260906091344 74 80 0.0 5.0 0.00 0.00 0.00 73 1016.9
20260906090830 74 140 2.0 5.0 0.00 0.00 0.00 73 1017.0
20260906090328 74 126 1.0 5.0 0.00 0.00 0.00 73 1016.9
20260906085827 74 75 1.0 5.0 0.00 0.00 0.00 73 1016.9
20260906085321 74 108 3.0 5.0 0.00 0.00 0.00 73 1016.9
20260906084823 74 18 1.0 4.0 0.00 0.00 0.00 73 1016.9
20260906084308 74 5 1.0 4.0 0.00 0.00 0.00 73 1016.9
20260906083810 74 338 0.0 6.0 0.00 0.00 0.00 73 1016.9
20260906083244 74 101 3.0 6.0 0.00 0.00 0.00 73 1016.8
20260906082744 74 56 0.0 7.0 0.00 0.00 0.00 74 1016.8
20260906082502 74 171 3.0 7.0 0.00 0.00 0.00 74 1016.8
20260906081737 74 60 3.0 7.0 0.00 0.00 0.00 75 1016.8
20260906081236 74 111 1.0 7.0 0.00 0.00 0.00 75 1016.8
20260906080736 74 102 2.0 6.0 0.00 0.00 0.00 75 1016.8
20260906080237 74 56 1.0 5.0 0.00 0.00 0.00 75 1016.8
20260906075733 74 53 1.0 5.0 0.00 0.00 0.00 75 1016.9
20260906075232 74 67 0.0 7.0 0.00 0.00 0.00 75 1016.9
20260906074720 74 67 1.0 7.0 0.00 0.00 0.00 75 1016.8
20260906074217 74 136 0.0 6.0 0.00 0.00 0.00 75 1016.8
20260906073719 74 73 0.0 5.0 0.00 0.00 0.00 76 1016.8
20260906073217 75 54 0.0 6.0 0.00 0.00 0.00 76 1016.8
20260906072706 74 144 1.0 6.0 0.00 0.00 0.00 76 1016.9
20260906072203 74 40 3.0 7.0 0.00 0.00 0.00 76 1017.0
20260906071702 74 46 0.0 7.0 0.00 0.00 0.00 77 1017.0
20260906071203 74 345 3.0 7.0 0.00 0.00 0.00 77 1017.0
20260906070701 74 99 3.0 7.0 0.00 0.00 0.00 77 1017.0
20260906070201 75 327 0.0 3.0 0.00 0.00 0.00 77 1016.9
20260906065650 75 43 0.0 3.0 0.00 0.00 0.00 77 1016.9
20260906065131 75 82 0.0 4.0 0.00 0.00 0.00 76 1017.0
20260906064625 75 37 1.0 4.0 0.00 0.00 0.00 76 1017.0
20260906064111 74 132 2.0 4.0 0.00 0.00 0.00 76 1016.9
20260906063604 75 46 0.0 3.0 0.00 0.00 0.00 76 1017.0
20260906063101 74 340 1.0 5.0 0.00 0.00 0.00 76 1017.0
20260906062550 75 60 0.0 6.0 0.00 0.00 0.00 76 1016.9
20260906062039 74 144 1.0 6.0 0.00 0.00 0.00 77 1016.9
20260906061537 74 28 2.0 6.0 0.00 0.00 0.00 77 1017.0
20260906061305 74 348 3.0 9.0 0.00 0.00 0.00 77 1017.0
20260906060536 74 267 0.0 9.0 0.00 0.00 0.00 78 1016.9
20260906060300 74 12 1.0 6.0 0.00 0.00 0.00 78 1017.0
20260906055531 74 331 1.0 6.0 0.00 0.00 0.00 79 1017.0
20260906055031 74 92 1.0 5.0 0.00 0.00 0.00 79 1016.9
20260906054530 74 1 2.0 6.0 0.00 0.00 0.00 79 1016.8
20260906054030 74 33 0.0 6.0 0.00 0.00 0.00 80 1016.9
20260906053531 74 14 0.0 6.0 0.00 0.00 0.00 80 1016.9
20260906053027 74 30 0.0 7.0 0.00 0.00 0.00 80 1016.8
20260906052514 74 30 3.0 7.0 0.00 0.00 0.00 80 1016.7
20260906052013 74 2 2.0 6.0 0.00 0.00 0.00 80 1016.6
20260906051507 74 350 1.0 6.0 0.00 0.00 0.00 81 1016.5
20260906051007 74 33 1.0 6.0 0.00 0.00 0.00 81 1016.5
20260906050510 73 30 1.0 7.0 0.00 0.00 0.00 81 1016.5
20260906050005 74 344 0.0 9.0 0.00 0.00 0.00 81 1016.5
20260906045504 74 5 3.0 9.0 0.00 0.00 0.00 81 1016.5
20260906045227 74 316 0.0 5.0 0.00 0.00 0.00 81 1016.5
20260906044459 74 358 0.0 5.0 0.00 0.00 0.00 81 1016.4
20260906044220 74 47 1.0 6.0 0.00 0.00 0.00 81 1016.3
20260906043458 74 5 1.0 6.0 0.00 0.00 0.00 81 1016.3
20260906043208 74 345 2.0 5.0 0.00 0.00 0.00 81 1016.2
20260906042809 74 50 1.0 8.0 0.00 0.00 0.00 80 1016.2
20260906042725 74 5 2.0 8.0 0.00 0.00 0.00 81 1016.2
20260906041448 74 23 3.0 8.0 0.00 0.00 0.00 80 1016.2
20260906041207 74 317 2.0 8.0 0.00 0.00 0.00 80 1016.1
20260906040444 74 149 2.0 7.0 0.00 0.00 0.00 80 1015.9
20260906035943 74 5 2.0 8.0 0.00 0.00 0.00 80 1015.9
20260906035444 74 2 2.0 8.0 0.00 0.00 0.00 80 1015.9
20260906034945 74 341 1.0 6.0 0.00 0.00 0.00 80 1015.9
20260906034437 74 7 1.0 9.0 0.00 0.00 0.00 80 1015.9
20260906033930 74 11 3.0 10.0 0.00 0.00 0.00 80 1015.9
20260906033651 74 5 3.0 10.0 0.00 0.00 0.00 80 1015.9
20260906032928 74 1 1.0 9.0 0.00 0.00 0.00 80 1015.9
20260906032750 74 29 1.0 9.0 0.00 0.00 0.00 80 1015.9
20260906032713 74 21 2.0 9.0 0.00 0.00 0.00 80 1016.1
20260906031649 74 340 3.0 10.0 0.00 0.00 0.00 79 1015.9
20260906030927 74 157 1.0 13.0 0.00 0.00 0.00 79 1015.9
20260906030429 74 14 4.0 13.0 0.00 0.00 0.00 79 1016.1
20260906025925 74 341 4.0 10.0 0.00 0.00 0.00 79 1016.1
20260906025423 74 26 1.0 10.0 0.00 0.00 0.00 79 1015.9
20260906024922 74 14 2.0 10.0 0.00 0.00 0.00 78 1016.1
20260906024420 74 37 5.0 10.0 0.00 0.00 0.00 78 1015.9
20260906023920 74 33 3.0 8.0 0.00 0.00 0.00 78 1015.9
20260906023648 74 22 2.0 10.0 0.00 0.00 0.00 78 1015.9
20260906022918 74 171 2.0 11.0 0.00 0.00 0.00 78 1015.9
20260906022418 74 8 0.0 11.0 0.00 0.00 0.00 78 1016.1
20260906021916 74 26 4.0 13.0 0.00 0.00 0.00 78 1016.2
20260906021904 74 14 7.0 13.0 0.00 0.00 0.00 77 1016.2
20260906020914 74 95 4.0 10.0 0.00 0.00 0.00 77 1016.3
20260906020417 74 21 2.0 11.0 0.00 0.00 0.00 77 1016.3
20260906015913 74 22 5.0 11.0 0.00 0.00 0.00 77 1016.2
20260906015412 74 12 4.0 12.0 0.00 0.00 0.00 77 1016.2
20260906015134 74 25 5.0 12.0 0.00 0.00 0.00 77 1016.3
20260906014410 74 21 1.0 10.0 0.00 0.00 0.00 77 1016.3
20260906013910 74 30 3.0 10.0 0.00 0.00 0.00 77 1016.3
20260906013409 74 14 5.0 10.0 0.00 0.00 0.00 77 1016.2
20260906012909 74 14 4.0 10.0 0.00 0.00 0.00 77 1016.3
20260906012406 74 330 3.0 10.0 0.00 0.00 0.00 77 1016.2
20260906011904 74 35 4.0 10.0 0.00 0.00 0.00 77 1016.2
20260906011404 74 333 5.0 10.0 0.00 0.00 0.00 77 1016.2
20260906010901 74 8 3.0 9.0 0.00 0.00 0.00 78 1015.9
20260906010400 74 355 3.0 9.0 0.00 0.00 0.00 78 1015.8
20260906005900 74 319 2.0 13.0 0.00 0.00 0.00 78 1015.7
20260906005400 74 343 5.0 13.0 0.00 0.00 0.00 79 1015.7
20260906004856 74 29 3.0 9.0 0.00 0.00 0.00 79 1015.6
20260906004354 74 63 5.0 12.0 0.00 0.00 0.00 79 1015.6
20260906003854 74 357 3.0 13.0 0.00 0.00 0.00 79 1015.5
20260906003354 74 8 5.0 13.0 0.00 0.00 0.00 78 1015.5
20260906002852 74 63 1.0 9.0 0.00 0.00 0.00 78 1015.5
20260906002613 74 28 3.0 12.0 0.00 0.00 0.00 78 1015.4
20260906001851 74 19 5.0 12.0 0.00 0.00 0.00 78 1015.4
20260906001349 74 22 4.0 11.0 0.00 0.00 0.00 78 1015.5
20260906000849 74 340 2.0 14.0 0.00 0.00 0.00 78 1015.4
20260906000348 73 11 4.0 14.0 0.00 0.00 0.00 78 1015.4
20260905235847 74 19 3.0 9.0 0.00 0.00 0.00 78 1015.5
20260905235347 73 49 4.0 15.0 0.00 0.00 0.00 78 1015.5
20260905234848 73 22 6.0 15.0 0.00 0.00 0.00 78 1015.6
20260905234346 73 15 6.0 15.0 0.00 0.00 0.00 78 1015.6
20260905233845 74 320 3.0 15.0 0.00 0.00 0.00 78 1015.6
20260905233340 73 45 5.0 15.0 0.00 0.00 0.00 77 1015.5
20260905232839 74 39 4.0 15.0 0.00 0.00 0.00 77 1015.5
20260905232338 74 37 4.0 15.0 0.00 0.00 0.00 77 1015.5
20260905232058 73 21 4.0 15.0 0.00 0.00 0.00 76 1015.4
20260905231337 74 324 3.0 13.0 0.00 0.00 0.00 77 1015.3
20260905230836 74 127 5.0 13.0 0.00 0.00 0.00 77 1015.3
20260905230558 73 14 7.0 17.0 0.00 0.00 0.00 77 1015.2
20260905225834 74 8 4.0 17.0 0.00 0.00 0.00 77 1015.2
20260905225334 74 7 9.0 17.0 0.00 0.00 0.00 77 1015.2
20260905224832 74 322 3.0 13.0 0.00 0.00 0.00 77 1015.2
20260905224333 75 129 4.0 13.0 0.00 0.00 0.00 77 1015.3
20260905223830 75 43 5.0 13.0 0.00 0.00 0.00 77 1015.3
20260905223329 75 52 6.0 13.0 0.00 0.00 0.00 76 1015.3
20260905223324 75 358 3.0 13.0 0.00 0.00 0.00 75 1015.4
20260905222326 76 322 4.0 13.0 0.00 0.00 0.00 76 1015.2
20260905221825 76 26 3.0 11.0 0.00 0.00 0.00 76 1015.1
20260905221326 76 26 3.0 11.0 0.00 0.00 0.00 76 1015.0
20260905220823 76 355 5.0 15.0 0.00 0.00 0.00 75 1015.0
20260905220321 76 50 3.0 15.0 0.00 0.00 0.00 75 1015.1
20260905220049 76 21 2.0 15.0 0.00 0.00 0.00 74 1015.0
20260905215320 77 1 3.0 11.0 0.00 0.00 0.00 73 1014.9
20260905214819 77 340 2.0 13.0 0.00 0.00 0.00 73 1014.9
20260905214318 77 341 4.0 13.0 0.00 0.00 0.00 73 1014.9
20260905213816 77 36 6.0 13.0 0.00 0.00 0.00 73 1014.8
20260905213316 77 4 2.0 13.0 0.00 0.00 0.00 74 1014.7
20260905212815 77 16 6.0 13.0 0.00 0.00 0.00 73 1014.7
20260905212318 77 1 6.0 13.0 0.00 0.00 0.00 73 1014.6
20260905212035 77 319 4.0 13.0 0.00 0.00 0.00 73 1014.7
20260905211530 77 5 7.0 12.0 0.00 0.00 0.00 73 1014.7
20260905210812 77 303 4.0 12.0 0.00 0.00 0.00 73 1014.7
20260905210309 78 32 5.0 11.0 0.00 0.00 0.00 71 1014.7
20260905205809 78 30 6.0 11.0 0.00 0.00 0.00 69 1014.7
20260905205307 78 355 5.0 12.0 0.00 0.00 0.00 69 1014.7
20260905205028 79 324 4.0 12.0 0.00 0.00 0.00 69 1014.7
20260905204306 78 4 6.0 12.0 0.00 0.00 0.00 69 1014.7
20260905203805 78 358 6.0 10.0 0.00 0.00 0.00 69 1014.7
20260905203304 78 18 4.0 10.0 0.00 0.00 0.00 70 1014.7
20260905203022 79 29 4.0 10.0 0.00 0.00 0.00 68 1014.7
20260905202527 79 2 3.0 11.0 0.00 0.00 0.00 69 1014.6
20260905201803 79 50 2.0 11.0 0.00 0.00 0.00 69 1014.7
20260905201303 79 348 6.0 11.0 0.00 0.00 0.00 68 1014.7
20260905201023 79 302 2.0 11.0 0.00 0.00 0.00 67 1014.8
20260905200258 80 2 4.0 12.0 0.00 0.00 0.00 66 1014.8
20260905195759 80 358 4.0 12.0 0.00 0.00 0.00 65 1014.8
20260905195256 79 241 3.0 14.0 0.00 0.00 0.00 67 1014.8
20260905194756 79 16 3.0 14.0 0.00 0.00 0.00 68 1014.8
20260905194255 79 5 4.0 13.0 0.00 0.00 0.00 66 1014.9
20260905193755 80 330 4.0 11.0 0.00 0.00 0.00 67 1014.9
20260905193255 79 8 3.0 11.0 0.00 0.00 0.00 67 1014.9
20260905192753 79 43 3.0 11.0 0.00 0.00 0.00 68 1014.9
20260905192252 79 347 5.0 10.0 0.00 0.00 0.00 68 1015.0
20260905191750 79 336 5.0 11.0 0.00 0.00 0.00 68 1015.0
20260905191250 79 42 5.0 11.0 0.00 0.00 0.00 69 1015.0
20260905190750 79 25 6.0 15.0 0.00 0.00 0.00 69 1014.9
20260905190251 79 327 2.0 15.0 0.00 0.00 0.00 69 1015.0
20260905185747 79 358 4.0 15.0 0.00 0.00 0.00 68 1015.0
20260905185504 79 358 4.0 12.0 0.00 0.00 0.00 67 1015.0
20260905184745 79 345 3.0 11.0 0.00 0.00 0.00 68 1015.1
20260905184246 79 350 4.0 11.0 0.00 0.00 0.00 68 1015.1
20260905183744 79 5 4.0 11.0 0.00 0.00 0.00 69 1015.1
20260905183244 79 331 3.0 14.0 0.00 0.00 0.00 70 1015.0
20260905182742 78 317 6.0 14.0 0.00 0.00 0.00 70 1015.1
20260905182241 79 30 6.0 14.0 0.00 0.00 0.00 69 1015.2
20260905181740 79 19 5.0 14.0 0.00 0.00 0.00 68 1015.2
20260905181240 79 299 6.0 13.0 0.00 0.00 0.00 68 1015.0
20260905181005 79 340 3.0 13.0 0.00 0.00 0.00 69 1015.0
20260905180237 79 355 3.0 11.0 0.00 0.00 0.00 69 1014.9
20260905175738 79 313 3.0 11.0 0.00 0.00 0.00 70 1014.9
20260905175234 79 33 3.0 10.0 0.00 0.00 0.00 69 1015.0
20260905174734 79 316 2.0 10.0 0.00 0.00 0.00 69 1014.9
20260905174232 79 358 3.0 10.0 0.00 0.00 0.00 68 1014.9
20260905173733 79 358 5.0 12.0 0.00 0.00 0.00 68 1014.9
20260905173231 79 319 2.0 13.0 0.00 0.00 0.00 68 1014.9
20260905172730 79 50 6.0 13.0 0.00 0.00 0.00 68 1014.9
20260905172231 79 2 2.0 12.0 0.00 0.00 0.00 70 1015.0
20260905171727 78 2 6.0 15.0 0.00 0.00 0.00 71 1015.0
20260905171226 78 26 2.0 15.0 0.00 0.00 0.00 73 1015.0
20260905170725 78 29 5.0 15.0 0.00 0.00 0.00 72 1015.1
20260905170224 78 32 1.0 9.0 0.00 0.00 0.00 72 1015.1
20260905165724 78 25 4.0 8.0 0.00 0.00 0.00 72 1015.2
20260905165224 78 18 4.0 8.0 0.00 0.00 0.00 71 1015.1
20260905164721 79 33 3.0 10.0 0.00 0.00 0.00 70 1015.1
20260905164220 79 23 4.0 11.0 0.00 0.00 0.00 70 1015.1
20260905163721 79 12 6.0 11.0 0.00 0.00 0.00 70 1015.1
20260905163219 79 18 3.0 11.0 0.00 0.00 0.00 70 1015.2
20260905162719 79 18 4.0 8.0 0.00 0.00 0.00 70 1015.2
20260905162218 79 102 3.0 10.0 0.00 0.00 0.00 72 1015.1
20260905161712 78 8 3.0 11.0 0.00 0.00 0.00 73 1015.1
20260905161215 78 317 3.0 11.0 0.00 0.00 0.00 73 1015.0
20260905160709 78 0 5.0 11.0 0.00 0.00 0.00 73 1015.0
20260905160207 78 25 2.0 13.0 0.00 0.00 0.00 74 1014.9
20260905155708 78 30 5.0 13.0 0.00 0.00 0.00 73 1014.9
20260905155209 78 286 3.0 13.0 0.00 0.00 0.00 73 1014.8
20260905154924 78 336 3.0 13.0 0.00 0.00 0.00 73 1014.7
20260905154205 78 350 5.0 13.0 0.00 0.00 0.00 72 1014.8
20260905153703 78 46 4.0 13.0 0.00 0.00 0.00 72 1014.7
20260905153203 78 15 3.0 9.0 0.00 0.00 0.00 73 1014.7
20260905152702 78 14 4.0 10.0 0.00 0.00 0.00 73 1014.7
20260905152201 78 350 2.0 10.0 0.00 0.00 0.00 73 1014.6
20260905151700 78 43 4.0 12.0 0.00 0.00 0.00 73 1014.6
20260905151200 78 1 4.0 12.0 0.00 0.00 0.00 73 1014.5
20260905150700 78 340 6.0 12.0 0.00 0.00 0.00 73 1014.5
20260905150159 78 15 7.0 12.0 0.00 0.00 0.00 71 1014.5
20260905145657 79 358 3.0 8.0 0.00 0.00 0.00 71 1014.5
20260905145157 79 350 4.0 8.0 0.00 0.00 0.00 71 1014.4
20260905144658 79 36 2.0 10.0 0.00 0.00 0.00 73 1014.2
20260905144155 78 22 3.0 11.0 0.00 0.00 0.00 73 1014.2
20260905143653 78 12 5.0 11.0 0.00 0.00 0.00 72 1014.3
20260905143154 79 350 4.0 10.0 0.00 0.00 0.00 72 1014.2
20260905142651 79 351 3.0 10.0 0.00 0.00 0.00 74 1014.2
20260905142152 79 354 1.0 10.0 0.00 0.00 0.00 76 1014.1
20260905141912 78 9 4.0 10.0 0.00 0.00 0.00 76 1014.1
20260905141151 78 8 4.0 10.0 0.00 0.00 0.00 76 1014.0
20260905140648 78 19 5.0 10.0 0.00 0.00 0.00 76 1014.1
20260905140148 78 358 4.0 9.0 0.00 0.00 0.00 77 1014.0
20260905135647 78 23 3.0 9.0 0.00 0.00 0.00 78 1014.2
20260905135150 78 348 5.0 10.0 0.00 0.00 0.00 77 1014.2
20260905134646 78 2 4.0 10.0 0.00 0.00 0.00 78 1014.2
20260905134144 78 313 4.0 9.0 0.00 0.00 0.00 78 1014.2
20260905133644 78 16 2.0 7.0 0.00 0.00 0.00 79 1014.4
20260905133142 78 37 2.0 8.0 0.00 0.00 0.00 80 1014.4
20260905132904 78 5 2.0 8.0 0.00 0.00 0.00 82 1014.4
20260905132142 78 312 2.0 8.0 0.00 0.00 0.00 82 1014.1
20260905131639 77 29 5.0 8.0 0.00 0.00 0.00 82 1013.9
20260905131140 77 345 2.0 7.0 0.00 0.00 0.00 84 1014.0
20260905130636 77 5 3.0 7.0 0.00 0.00 0.00 84 1013.9
20260905130135 76 330 3.0 7.0 0.00 0.00 0.00 85 1013.9
20260905125636 76 300 2.0 7.0 0.00 0.00 0.00 87 1013.8
20260905125351 76 344 1.0 6.0 0.00 0.00 0.00 86 1013.7